Location: Pisa
(43.7170°N, 10.3830°E)
Time: 20:21:23
(UTC+02:00)

ISS - Pass Details

Date: 14 May 2021
Orbit: 417 x 422 km, 51.6° (Epoch: 13 June)

Event Time Altitude Azimuth Distance (km) Brightness Sun altitude
Rises 04:26:50 0° 302° (WNW) 2,374 -0.1 -13.7°
Reaches altitude 10° 04:28:56 10° 304° (NW) 1,508 -1.1 -13.4°
Maximum altitude 04:32:19 78° 30° (NNE) 435 -3.6 -13.0°
Drops below altitude 10° 04:35:42 10° 118° (ESE) 1,503 -0.7 -12.5°
Sets 04:37:48 0° 120° (ESE) 2,365 0.3 -12.3°
